Spokane, WA

1:04 PM PDT on June 23, 2017 (GMT -0700)
Spokane International

Weather History for KGEG - September, 2012

Change the Weather History Date:

Thursday, September 6, 2012

  Actual Average Record
Temperature  
Mean Temperature 64 °F 64 °F  
Max Temperature 75 °F 77 °F 94 °F (2003)
Min Temperature 52 °F 51 °F 33 °F (1895)
Degree Days  
Heating Degree Days 1 3  
Month to date heating degree days 8 18  
Since 1 July heating degree days 42 83  
Cooling Degree Days 0 2  
Month to date cooling degree days 0 14  
Year to date cooling degree days 508 425  
Growing Degree Days 12 (Base 50)    
Moisture  
Dew Point 43 °F    
Average Humidity 52    
Maximum Humidity 77    
Minimum Humidity 27    
Precipitation  
Precipitation 0.00 in 0.02 in 1.16 in (1927)
Month to date precipitation 0.00 0.13  
Year to date precipitation 13.96 10.24  
Snow  
Snow 0.00 in 0.00 in 0.00 in (2002)
Month to date snowfall 0.0 0.0  
Since 1 July snowfall 0.0 0.0  
Since 1 September snowfall 0.0 0.0  
Snow Depth 0.00 in    
Sea Level Pressure  
Sea Level Pressure 30.05 in    
Wind  
Wind Speed 10 mph (NNE)    
Max Wind Speed 20 mph    
Max Gust Speed 25 mph    
Visibility 10 miles    
Events      
T = Trace of Precipitation, MM = Missing Value Source: NWS Daily Summary

Daily Weather History Graph

Daily Weather History Graph

Search for Another Location

Airport or City:

Trip Planner

Search our weather history database for the weather conditions in past years. The results will help you decide how hot, cold, wet, or windy it might be!

Date:

Astronomy

Sep. 06, 2012 Rise Set
Actual Time 6:16 AM PDT 7:19 PM PDT
Civil Twilight 5:44 AM PDT 7:50 PM PDT
Nautical Twilight 5:06 AM PDT 8:28 PM PDT
Astronomical Twilight 4:26 AM PDT 9:08 PM PDT
Moon 10:03 PM PDT (9/6) 12:49 PM PDT (9/6)
Length of Visible Light 14h 06m
Length of Day
13h 03m
Waning Gibbous, 66% of the Moon is Illuminated
Sep 6
Waning Gibbous
Sep 8
Last Quarter
Sep 15
New
Sep 22
First Quarter
Sep 29
Full

Hourly Weather History & Observations

Time (PDT) Temp. Dew Point Humidity Pressure Visibility Wind Dir Wind Speed Gust Speed Precip Events Conditions
12:53 AM 57.9 °F 45.0 °F 62% 29.96 in 10.0 mi North 13.8 mph - N/A   Scattered Clouds
1:53 AM 55.9 °F 46.0 °F 69% 29.96 in 10.0 mi North 17.3 mph 25.3 mph N/A   Partly Cloudy
2:53 AM 55.0 °F 46.0 °F 72% 29.97 in 10.0 mi NNE 11.5 mph - N/A   Partly Cloudy
3:53 AM 53.1 °F 46.0 °F 77% 29.99 in 10.0 mi NNE 10.4 mph - N/A   Clear
4:53 AM 53.1 °F 45.0 °F 74% 30.00 in 10.0 mi NNE 12.7 mph - N/A   Partly Cloudy
5:53 AM 52.0 °F 44.1 °F 74% 30.01 in 10.0 mi NNE 8.1 mph - N/A   Partly Cloudy
6:53 AM 53.1 °F 44.1 °F 71% 30.03 in 10.0 mi NE 8.1 mph - N/A   Partly Cloudy
7:53 AM 55.0 °F 44.1 °F 67% 30.05 in 10.0 mi NNE 9.2 mph - N/A   Partly Cloudy
8:53 AM 59.0 °F 42.1 °F 53% 30.04 in 10.0 mi NNE 15.0 mph - N/A   Partly Cloudy
9:53 AM 62.1 °F 42.1 °F 48% 30.07 in 10.0 mi NE 11.5 mph 17.3 mph N/A   Partly Cloudy
10:53 AM 66.0 °F 42.1 °F 42% 30.07 in 10.0 mi NE 13.8 mph 18.4 mph N/A   Partly Cloudy
11:53 AM 68.0 °F 42.1 °F 39% 30.07 in 10.0 mi NNE 10.4 mph 20.7 mph N/A   Partly Cloudy
12:53 PM 71.1 °F 42.1 °F 35% 30.07 in 10.0 mi North 10.4 mph 18.4 mph N/A   Partly Cloudy
1:53 PM 73.0 °F 41.0 °F 31% 30.07 in 10.0 mi NE 12.7 mph 16.1 mph N/A   Partly Cloudy
2:53 PM 73.9 °F 41.0 °F 30% 30.06 in 10.0 mi NNE 13.8 mph 18.4 mph N/A   Partly Cloudy
3:53 PM 75.2 °F 39.2 °F 27% 30.06 in 10.0 mi NE 13.8 mph 21.9 mph N/A   Scattered Clouds
4:53 PM 73.4 °F 41.0 °F 31% 30.06 in 10.0 mi NE 13.8 mph - N/A   Partly Cloudy
5:53 PM 73.4 °F 39.2 °F 29% 30.07 in 10.0 mi NE 11.5 mph - N/A   Partly Cloudy
6:53 PM 71.6 °F 41.0 °F 33% 30.07 in 10.0 mi NE 9.2 mph - N/A   Partly Cloudy
7:53 PM 68.0 °F 41.0 °F 37% 30.09 in 10.0 mi NE 4.6 mph - N/A   Clear
8:53 PM 66.0 °F 41.0 °F 40% 30.10 in 10.0 mi NE 3.5 mph - N/A   Clear
9:53 PM 64.0 °F 41.0 °F 43% 30.11 in 10.0 mi Calm Calm - N/A   Clear
10:53 PM 63.0 °F 42.1 °F 46% 30.12 in 10.0 mi Calm Calm - N/A   Clear
11:53 PM 61.0 °F 42.1 °F 50% 30.12 in 10.0 mi NE 5.8 mph - N/A   Clear